TimeEDT,TemperatureF,Dew PointF,Humidity,Sea Level PressureIn,VisibilityMPH,Wind Direction,Wind SpeedMPH,Gust SpeedMPH,PrecipitationIn,Events,Conditions,WindDirDegrees,DateUTC
12:15 AM,68.0,65.3,91,30.23,10.0,NE,9.2,-,N/A,,Overcast,50,2013-06-21 04:15:00
12:35 AM,68.0,65.3,91,30.23,10.0,NE,9.2,-,N/A,,Overcast,50,2013-06-21 04:35:00
12:55 AM,68.0,65.3,91,30.22,10.0,NE,10.4,16.1,N/A,,Overcast,50,2013-06-21 04:55:00
1:15 AM,68.0,65.3,91,30.21,10.0,NE,10.4,-,N/A,,Overcast,50,2013-06-21 05:15:00
1:35 AM,67.5,65.3,93,30.21,10.0,NE,9.2,-,N/A,,Mostly Cloudy,40,2013-06-21 05:35:00
1:55 AM,68.0,65.7,92,30.21,10.0,NE,8.1,-,N/A,,Overcast,40,2013-06-21 05:55:00
2:15 AM,68.0,65.7,92,30.20,10.0,NE,10.4,-,N/A,,Overcast,50,2013-06-21 06:15:00
2:35 AM,68.0,65.8,93,30.19,10.0,ENE,9.2,-,N/A,,Overcast,60,2013-06-21 06:35:00
2:55 AM,68.4,66.2,93,30.19,10.0,NE,10.4,-,N/A,,Overcast,50,2013-06-21 06:55:00
3:15 AM,68.4,66.4,93,30.18,10.0,NE,10.4,-,N/A,,Overcast,40,2013-06-21 07:15:00
3:35 AM,68.5,66.4,93,30.18,10.0,NE,8.1,-,N/A,,Overcast,40,2013-06-21 07:35:00
3:55 AM,68.9,66.7,93,30.18,10.0,NNE,9.2,-,N/A,,Overcast,30,2013-06-21 07:55:00
4:15 AM,68.9,66.7,93,30.18,10.0,NNE,10.4,-,N/A,,Overcast,20,2013-06-21 08:15:00
4:35 AM,68.9,67.1,94,30.19,10.0,NNE,11.5,-,N/A,,Overcast,30,2013-06-21 08:35:00
4:55 AM,68.5,66.9,95,30.19,10.0,NNE,8.1,-,N/A,,Overcast,30,2013-06-21 08:55:00
5:15 AM,68.5,67.1,95,30.19,10.0,NE,10.4,-,N/A,,Mostly Cloudy,40,2013-06-21 09:15:00
5:35 AM,68.9,67.1,94,30.19,10.0,NE,9.2,-,N/A,,Overcast,40,2013-06-21 09:35:00
5:55 AM,68.5,67.1,95,30.20,7.0,NNE,11.5,-,N/A,,Overcast,30,2013-06-21 09:55:00
6:15 AM,68.5,66.9,95,30.20,7.0,NNE,12.7,19.6,N/A,,Overcast,30,2013-06-21 10:15:00
6:35 AM,68.9,67.1,94,30.20,10.0,NE,11.5,-,N/A,,Overcast,40,2013-06-21 10:35:00
6:55 AM,69.1,67.1,93,30.20,10.0,NE,12.7,16.1,N/A,,Mostly Cloudy,40,2013-06-21 10:55:00
7:15 AM,69.8,67.3,92,30.20,10.0,NE,11.5,-,N/A,,Mostly Cloudy,40,2013-06-21 11:15:00
7:35 AM,69.8,67.1,91,30.20,7.0,NE,13.8,-,N/A,,Mostly Cloudy,50,2013-06-21 11:35:00
7:55 AM,70.7,67.3,89,30.21,10.0,NE,13.8,-,N/A,,Mostly Cloudy,40,2013-06-21 11:55:00
8:15 AM,71.4,67.5,87,30.21,10.0,NE,13.8,17.3,N/A,,Mostly Cloudy,40,2013-06-21 12:15:00
8:35 AM,71.6,67.6,87,30.21,10.0,NE,10.4,-,N/A,,Mostly Cloudy,40,2013-06-21 12:35:00
8:55 AM,72.9,68.0,85,30.22,10.0,NE,12.7,-,N/A,,Scattered Clouds,40,2013-06-21 12:55:00
9:15 AM,73.4,68.4,84,30.22,10.0,NNE,10.4,-,N/A,,Scattered Clouds,30,2013-06-21 13:15:00
9:35 AM,73.4,68.4,84,30.22,10.0,NE,11.5,-,N/A,,Scattered Clouds,50,2013-06-21 13:35:00
9:55 AM,74.5,69.3,84,30.22,10.0,NE,11.5,-,N/A,,Scattered Clouds,40,2013-06-21 13:55:00
10:15 AM,75.2,69.1,81,30.22,10.0,NE,10.4,-,N/A,,Clear,50,2013-06-21 14:15:00
10:35 AM,75.0,69.1,82,30.22,10.0,NE,10.4,16.1,N/A,,Clear,50,2013-06-21 14:35:00
10:55 AM,75.7,69.6,81,30.22,10.0,NE,11.5,-,N/A,,Clear,50,2013-06-21 14:55:00
11:15 AM,75.9,69.1,79,30.22,10.0,ENE,13.8,-,N/A,,Scattered Clouds,60,2013-06-21 15:15:00
11:35 AM,76.3,69.8,80,30.22,10.0,NE,12.7,18.4,N/A,,Scattered Clouds,50,2013-06-21 15:35:00
11:55 AM,76.6,70.0,80,30.22,10.0,ENE,10.4,-,N/A,,Clear,60,2013-06-21 15:55:00
12:15 PM,76.1,69.8,81,30.23,10.0,ENE,13.8,-,N/A,,Scattered Clouds,70,2013-06-21 16:15:00
12:35 PM,75.4,69.8,83,30.23,10.0,ENE,12.7,18.4,N/A,,Mostly Cloudy,60,2013-06-21 16:35:00
12:55 PM,75.6,70.0,83,30.23,10.0,ENE,9.2,-,N/A,,Mostly Cloudy,60,2013-06-21 16:55:00
1:15 PM,76.6,70.3,81,30.22,10.0,NE,9.2,-,N/A,,Mostly Cloudy,50,2013-06-21 17:15:00
1:35 PM,76.5,70.3,81,30.22,10.0,NE,8.1,-,N/A,,Mostly Cloudy,50,2013-06-21 17:35:00
1:55 PM,76.8,70.5,81,30.21,10.0,NE,6.9,-,N/A,,Mostly Cloudy,40,2013-06-21 17:55:00
2:15 PM,77.5,70.9,80,30.22,10.0,ENE,9.2,-,N/A,,Mostly Cloudy,60,2013-06-21 18:15:00
2:35 PM,78.1,70.7,78,30.21,10.0,East,9.2,-,N/A,,Scattered Clouds,100,2013-06-21 18:35:00
2:55 PM,76.6,71.1,83,30.22,7.0,East,11.5,-,N/A,Rain,Rain,100,2013-06-21 18:55:00
3:15 PM,75.2,70.7,86,30.22,10.0,ESE,8.1,-,N/A,,Overcast,110,2013-06-21 19:15:00
3:35 PM,73.9,71.2,91,30.21,4.0,ENE,5.8,-,0.01,Rain,Rain,60,2013-06-21 19:35:00
3:55 PM,74.8,72.1,91,30.21,10.0,East,9.2,-,0.01,,Overcast,80,2013-06-21 19:55:00
4:15 PM,75.6,71.1,86,30.21,10.0,ENE,8.1,-,N/A,,Overcast,60,2013-06-21 20:15:00
4:35 PM,77.4,71.2,81,30.21,10.0,ENE,9.2,-,N/A,,Scattered Clouds,70,2013-06-21 20:35:00
4:55 PM,77.7,70.9,79,30.20,10.0,ENE,10.4,-,N/A,,Mostly Cloudy,70,2013-06-21 20:55:00
5:15 PM,76.1,70.3,82,30.20,10.0,ENE,9.2,-,N/A,,Overcast,70,2013-06-21 21:15:00
5:35 PM,75.4,70.2,84,30.20,10.0,ENE,11.5,-,N/A,,Overcast,70,2013-06-21 21:35:00
5:55 PM,75.6,70.5,84,30.20,10.0,East,9.2,-,N/A,,Overcast,80,2013-06-21 21:55:00
6:15 PM,75.6,70.7,85,30.20,10.0,East,9.2,-,N/A,,Overcast,80,2013-06-21 22:15:00
6:35 PM,75.0,70.7,86,30.20,10.0,ENE,10.4,-,N/A,,Overcast,70,2013-06-21 22:35:00
6:55 PM,74.8,70.3,86,30.20,10.0,East,10.4,-,N/A,,Overcast,80,2013-06-21 22:55:00
7:15 PM,74.3,69.6,85,30.20,10.0,East,11.5,-,N/A,,Mostly Cloudy,80,2013-06-21 23:15:00
7:35 PM,73.9,68.4,83,30.21,10.0,ENE,10.4,-,N/A,,Scattered Clouds,70,2013-06-21 23:35:00
7:55 PM,73.4,68.2,84,30.21,10.0,ENE,11.5,-,N/A,,Overcast,70,2013-06-21 23:55:00
8:15 PM,72.9,68.4,86,30.22,10.0,East,12.7,-,N/A,,Mostly Cloudy,80,2013-06-22 00:15:00
8:35 PM,72.5,68.4,87,30.22,10.0,ENE,12.7,-,N/A,,Scattered Clouds,70,2013-06-22 00:35:00
8:55 PM,72.5,68.0,86,30.21,10.0,ENE,12.7,-,N/A,,Scattered Clouds,70,2013-06-22 00:55:00
9:15 PM,72.1,68.9,89,30.21,10.0,East,12.7,-,N/A,,Scattered Clouds,80,2013-06-22 01:15:00
9:35 PM,71.8,68.9,91,30.21,10.0,East,9.2,-,N/A,,Clear,80,2013-06-22 01:35:00
9:55 PM,71.6,68.7,91,30.21,10.0,East,12.7,-,N/A,,Clear,80,2013-06-22 01:55:00
10:15 PM,71.6,68.5,90,30.22,10.0,East,13.8,-,N/A,,Clear,80,2013-06-22 02:15:00
10:35 PM,71.2,68.4,91,30.22,10.0,East,10.4,16.1,N/A,,Clear,80,2013-06-22 02:35:00
10:55 PM,71.1,68.4,91,30.22,10.0,East,11.5,-,N/A,,Clear,80,2013-06-22 02:55:00
11:15 PM,71.1,68.4,91,30.22,10.0,East,10.4,17.3,N/A,,Clear,80,2013-06-22 03:15:00
11:35 PM,70.9,68.4,92,30.22,10.0,East,9.2,-,N/A,,Clear,90,2013-06-22 03:35:00
11:55 PM,70.9,68.5,92,30.22,10.0,East,8.1,17.3,N/A,,Clear,80,2013-06-22 03:55:00